#timestamp,LO_Frequency,Hit,StdDev 
1512766815.0,286047002.9,N
1512766815.9,286047002.9,N
1512766835.7,286047004.4,N
1512766855.6,286046999.1,N
1512766875.4,286046999.1,N
1512766895.2,286046996.5,N
1512766915.1,286046995.3,N
1512766916.0,286046995.3,N
1512766935.8,286047000.5,N
1512766955.6,286046997.2,N
1512766975.5,286046993.5,N
1512766995.3,286046996.4,N
1512767015.1,286046998.8,N
1512767035.9,286047005.9,N
1512767055.7,286047003.9,N
1512767075.5,286047003.4,N
1512767095.3,286047003.8,N
1512767115.2,286047000.4,N
1512767135.0,286047002.1,N
1512767135.9,286047002.1,N
1512767155.7,286047006.0,N
1512767175.6,286047007.1,N
1512767195.4,286047006.6,N
1512767215.2,286047008.2,N
1512767235.1,286047010.0,N
1512767236.0,286047010.0,N
1512767255.8,286047013.3,Y
1512767275.6,286047015.6,P
1512767295.5,286047013.2,N
1512767315.3,286047013.4,N
1512767335.1,286047015.6,N
1512767355.9,286047014.3,N
1512767375.7,286047017.1,Y
1512767395.5,286047010.2,P
1512767415.4,286047008.8,P
1512767435.2,286047001.9,N
1512767455.0,286047000.7,N
1512767455.9,286047000.7,N
1512767475.8,286047003.4,N
1512767495.6,286047003.5,N
1512767515.4,286047006.0,N
1512767535.3,286047007.7,N
1512767555.1,286047010.8,N
1512767556.0,286047010.8,N
1512767575.8,286047008.8,N
1512767595.7,286047001.9,N
1512767615.5,286046997.7,N
1512767635.3,286046994.4,N
1512767655.1,286046991.0,N
1512767675.9,286046987.0,N
1512767695.7,286046986.0,N
1512767715.5,286046985.3,N
1512767735.4,286046983.7,N
1512767755.2,286046986.8,N
1512767775.0,286046982.3,N
1512767775.9,286046982.3,N
1512767795.8,286046988.0,N
1512767815.6,286046988.7,N
1512767835.4,286046989.8,N
1512767855.3,286046987.4,N
1512767875.1,286046989.5,N
1512767876.0,286046989.5,N
1512767895.8,286046989.7,N
1512767915.7,286046988.9,N
1512767935.5,286046989.9,N
1512767955.3,286046988.8,N
1512767975.2,286046989.9,N
1512767995.9,286046992.1,N
1512768015.7,286046999.5,N
1512768035.5,286046996.9,N
1512768055.4,286046997.6,N
1512768075.2,286046996.9,N
1512768095.0,286047002.4,N
1512768095.9,286047002.4,N
1512768115.8,286047003.6,N
1512768135.6,286047000.4,N
1512768155.4,286047001.1,N
1512768175.3,286046998.9,N
1512768195.1,286046998.2,N
1512768196.0,286046998.2,N
1512768215.8,286047003.8,N
1512768235.7,286047003.7,N
1512768255.5,286047003.4,N
1512768275.3,286047003.5,N
1512768295.2,286047001.6,N
1512768315.9,286047004.6,N
1512768335.7,286047006.5,N
1512768355.6,286047003.7,N
1512768375.4,286047006.3,N
1512768395.2,286047009.2,N
1512768415.0,286047009.6,N
1512768416.0,286047009.6,N
1512768435.8,286047011.3,N
1512768455.6,286047011.3,N
1512768475.4,286047012.6,N
1512768495.3,286047014.8,N
1512768515.1,286047016.8,N
1512768535.8,286047012.5,N
1512768555.7,286047014.5,N
1512768575.5,286047014.4,N
1512768595.3,286047014.2,N
1512768615.2,286047016.7,N
1512768635.9,286047016.3,N
1512768655.7,286047018.2,Y
1512768675.6,286047008.0,P
1512768695.4,286047006.5,P
1512768715.2,286047004.6,P
1512768735.1,286047003.4,N
1512768736.0,286047003.4,N
1512768755.8,286047005.9,Y
1512768775.6,286047000.8,P
1512768795.5,286047001.6,N
1512768815.3,286047002.9,N
1512768835.1,286047003.5,N
1512768855.9,286047007.2,Y
1512768875.7,286047005.2,P
1512768895.5,286046999.7,N
1512768915.4,286046998.2,N
1512768935.2,286046998.7,N
1512768955.0,286047000.8,N
1512768955.9,286047000.8,N
1512768975.8,286047000.9,N
1512768995.6,286047003.4,N
1512769015.4,286047003.3,N
1512769035.2,286047002.6,N
1512769055.1,286047000.6,N
1512769056.0,286047000.6,N
1512769075.8,286046995.7,N
1512769095.6,286046995.6,N
1512769115.5,286046996.0,N
1512769135.3,286046997.9,N
1512769155.1,286046995.2,N
1512769175.9,286046997.7,N
1512769195.7,286046996.6,N
1512769215.5,286046997.6,N
1512769235.4,286046996.1,N
1512769255.2,286046995.1,N
1512769275.0,286046997.4,N
1512769275.9,286046997.4,N
1512769295.7,286046996.3,N
1512769315.6,286046996.2,N
1512769335.4,286046995.3,N
1512769355.2,286046995.6,N
1512769375.1,286046999.5,N
1512769376.0,286046999.5,N
1512769395.8,286046996.5,N
1512769415.6,286046996.8,N
1512769435.5,286046998.0,N
1512769455.3,286046991.7,Y
1512769475.1,286046992.9,P
1512769495.9,286046992.3,N
1512769515.7,286046992.3,N
1512769535.5,286046992.9,N
1512769555.4,286046988.2,Y
1512769575.2,286046989.7,P
1512769595.0,286046991.2,P
1512769595.9,286046991.2,P
1512769615.8,286046987.2,Y
1512769635.6,286046997.3,P
1512769655.4,286046996.2,N
1512769675.3,286046988.5,P
1512769695.1,286046990.8,N
1512769696.0,286046990.8,N
1512769715.8,286046988.0,Y
1512769735.7,286046988.5,P
1512769755.5,286046989.1,P
1512769775.3,286046990.9,P
1512769795.2,286046994.7,Y
1512769815.9,286047002.5,P
1512769835.7,286047000.6,N
1512769855.6,286046999.5,N
1512769875.4,286047000.9,N
1512769895.2,286046998.7,N
1512769915.1,286047001.0,N
1512769916.0,286047001.0,N
1512769935.8,286047007.1,N
1512769955.6,286047009.0,N
1512769975.4,286047011.5,N
1512769995.3,286047014.8,N
1512770015.1,286047019.7,Y
1512770035.8,286047018.1,P
1512770055.7,286047020.6,N
1512770075.5,286047023.0,N
1512770095.3,286047020.9,N
1512770115.2,286047023.6,Y
1512770135.0,286047005.5,P
1512770135.9,286047005.5,N
1512770155.7,286047007.3,N
1512770175.6,286047005.4,N
1512770195.4,286047004.1,N
1512770215.2,286047002.9,N
1512770235.1,286047008.1,N
1512770236.0,286047008.1,N
1512770255.8,286047009.8,N
1512770275.6,286047004.7,N
1512770295.5,286047008.6,N
1512770315.3,286047006.3,N
1512770335.1,286047001.7,N
1512770355.9,286047007.0,N
1512770375.7,286047011.9,Y
1512770395.5,286047003.3,P
